sat.trackr.live / text

‹ back to catalog

STARLINK-6173

NORAD 56385 · 2023-061M

PAYLOAD ACTIVE UNKNOWN

§ Identity

Operator
Country
US
Launch date
2023-05-04
Launch site
AFETR
Launch vehicle
Mass (kg)
RCS (m²)

Purposes: comms

External: N2YO · Heavens-Above · Gunter

§ Orbital elements

Epoch: 2026-09-19T03:12:49.579488Z

Period
94.27 min
Inclination
43.0011°
Eccentricity
0.0001108
Mean motion
15.27575948 rev/d
Perigee alt
482.3 km
Apogee alt
483.8 km
Semi-major
6,861.2 km
B*
2.6209e-5
RAAN
185.4972°
Arg perigee
271.6667°
Mean anomaly
88.4058°
Rev number
18,633

§ Raw data

STARLINK-61731 56385U 23061M   26262.13390717  .00000459  00000+0  26209-4 0  99982 56385  43.0011 185.4972 0001108 271.6667  88.4058 15.27575948186336

JSON: /api/v1/satellites/56385 · /tle

For live sub-satellite position, see the globe view (requires WebGL).

§ Visibility from observer

Set your observer location to see the next 7 days of passes ≥ 10°. The values pass through the URL so the page stays shareable.

No JS? Fill the form by hand. The geolocation button needs JavaScript.